Location: Unspecified
(34.4950°S, 58.5160°W)
Time: 23:04:03
(UTC+00:00)

GOES 2 Rocket - Pass Details

Date: 19 April 2026
Orbit: 569 x 1657 km, 28.4° (Epoch: 16 May)

Event Time Altitude Azimuth Distance (km) Brightness Sun altitude
Exits shadow 08:50:20 26° 328° (NNW) 1,160 4.2 -19.2°
Maximum altitude 08:51:53 34° 9° (N) 979 4.1 -18.9°
Drops below altitude 10° 08:56:03 10° 74° (ENE) 2,047 6.9 -18.1°
Sets 08:58:47 0° 83° (E) 3,083 8.4 -17.5°
